Wind_Speed
14 14 13 12 13 14 14 14 15 13 12 13 12 14 15 16 17 18 22 20 18 10 10 11 12 12 13 21 20 16 1 3 3 5 4 8 4 3 7 12 5 7 9 13 6
16 15 15 15 14 15 16 16 15 15 13 14 13 14 15 14 17 24 22 20 17 17 15 15 16 15 15 13 6 4 2 7 5 7 7 12 12 9 6 13 15 16 13 8 1
17 17 17 17 16 16 16 16 17 16 13 14 14 13 13 12 13 29 19 22 22 20 21 18 19 16 15 20 18 5 6 5 6 9 14 10 10 8 17 3 8 11 12 4 5
18 18 18 18 19 18 18 17 17 17 15 14 14 12 11 10 7 7 11 26 20 15 18 21 20 15 5 7 28 8 8 9 6 8 8 6 9 5 5 7 10 9 8 2 5
20 20 20 20 20 20 20 19 18 16 15 14 13 13 10 15 27 7 2 24 21 20 21 23 20 14 6 7 7 5 5 12 11 8 9 9 6 8 16 16 10 8 7 2 3
20 20 20 21 22 22 21 20 18 17 16 14 13 13 12 15 26 25 13 16 24 25 22 21 17 17 13 9 5 7 10 14 8 8 8 5 4 7 14 15 11 13 9 5 2
22 21 21 21 22 22 21 20 18 17 17 14 13 14 18 32 12 22 24 22 20 21 21 18 13 16 10 4 8 12 5 3 7 9 5 6 0 5 22 16 16 17 12 7 3
23 22 22 21 22 22 21 20 17 17 16 14 12 12 17 28 27 13 18 26 20 18 18 12 9 1 2 2 1 4 5 3 5 9 4 11 8 7 24 20 17 20 15 9 6
25 25 22 22 21 21 21 19 16 16 14 10 10 12 12 9 23 18 23 21 20 19 19 15 11 3 2 2 5 4 4 6 4 12 6 4 7 5 27 21 19 23 19 13 9
25 26 25 23 21 20 19 16 15 13 9 5 5 5 23 15 24 24 21 20 20 19 21 14 4 2 3 4 7 5 5 5 6 6 6 6 8 8 27 24 21 26 22 16 11
24 24 24 24 21 19 18 5 4 1 7 11 11 15 16 16 19 26 23 25 29 25 8 5 3 5 8 8 5 6 6 9 4 6 7 10 7 13 22 20 21 25 24 19 12
23 24 23 19 18 18 15 7 2 5 10 17 25 29 33 14 7 22 26 27 19 7 5 0 7 8 8 7 8 7 9 12 6 8 8 8 12 9 13 20 28 29 26 22 17
23 21 21 17 15 16 15 10 11 8 6 14 22 22 35 12 23 26 25 23 5 7 7 8 7 8 10 9 9 7 8 11 6 1 6 4 6 5 8 4 20 28 27 22 18
24 20 18 14 13 17 14 8 1 5 2 6 9 14 29 24 10 26 27 26 7 15 8 8 12 12 10 12 10 9 8 14 6 7 6 4 4 5 6 8 12 23 27 25 21
24 22 15 13 10 13 12 10 9 6 4 7 10 24 30 24 9 18 26 32 13 7 7 15 8 8 12 17 13 10 7 8 6 7 4 3 3 6 7 5 9 18 30 28 24
22 22 17 15 23 17 14 9 10 4 8 6 5 15 13 25 18 21 14 36 28 10 7 13 20 9 15 10 14 8 4 5 5 3 0 7 5 4 6 15 7 17 27 31 27
21 20 19 19 17 17 15 6 2 7 6 6 6 7 25 15 13 10 15 15 12 6 12 7 16 10 8 7 5 5 6 2 3 4 6 1 2 10 11 9 17 22 29 34 29
20 20 23 24 22 13 9 3 11 10 16 4 3 3 16 20 12 13 12 17 13 5 6 10 12 13 6 9 8 7 9 6 7 3 9 6 4 7 5 21 28 36 39 36 31
19 21 25 25 21 17 6 11 13 10 18 8 4 2 6 14 9 17 18 16 8 11 14 8 14 8 5 7 14 5 4 9 6 3 1 4 6 6 2 8 17 23 32 38 34
21 20 27 22 17 19 3 29 8 9 3 24 15 7 6 7 17 14 21 19 20 14 10 9 11 11 11 2 4 11 6 3 2 5 5 4 4 6 3 9 10 16 28 35 35
22 6 9 20 19 14 12 18 21 8 14 6 18 5 8 6 7 14 14 22 21 19 18 14 7 5 4 6 9 1 3 5 4 5 3 3 6 7 11 13 18 22 31 42 39
21 4 9 28 8 6 17 11 8 20 19 4 3 6 6 4 4 7 7 15 30 24 13 11 8 12 4 5 4 2 8 7 4 4 2 4 7 6 8 9 23 28 32 41 41
17 13 12 37 9 8 18 22 16 9 7 3 6 5 2 5 3 8 9 8 19 25 23 11 6 3 5 5 4 3 4 6 9 3 6 0 5 5 7 7 16 22 28 39 41
14 5 10 25 25 12 13 19 11 24 18 17 10 6 5 5 5 6 5 5 13 15 32 26 8 19 15 11 6 4 10 15 9 5 4 7 9 8 7 7 10 22 30 36 44
16 6 10 8 13 20 7 4 19 10 19 13 5 19 11 6 2 12 8 12 17 12 3 9 14 7 18 13 15 9 14 16 18 18 9 9 7 10 11 16 22 24 29 29 34
9 4 8 3 27 19 16 15 16 9 18 14 20 21 7 10 15 6 7 2 9 2 17 4 6 5 3 11 10 5 9 14 20 18 14 10 10 9 22 10 6 20 33 34 39
12 12 5 5 2 8 16 23 11 14 17 20 21 11 14 26 17 21 24 24 18 8 7 7 7 2 6 14 10 2 9 13 18 11 16 12 12 7 9 8 21 25 38 42 44
Wind_Direction
296 302 306 307 306 308 305 303 299 292 282 277 263 252 249 242 235 246 235 230 211 187 183 207 226 246 255 262 266 271 186 258 154 141 208 181 158 151 136 140 107 106 115 129 122
296 300 302 301 303 301 300 304 298 292 287 281 271 257 255 252 251 247 231 224 214 219 211 224 236 246 241 265 273 147 112 180 198 164 180 185 162 158 150 103 103 97 115 120 26
296 299 298 297 297 296 296 302 301 295 289 280 276 264 254 251 269 245 234 222 220 221 238 240 269 255 253 266 267 273 191 218 162 147 161 142 161 164 120 88 144 138 137 115 350
295 294 294 293 293 293 298 296 294 297 295 284 280 269 260 226 214 215 226 207 207 208 214 230 241 258 258 262 273 223 197 161 151 86 139 155 151 102 138 157 151 138 154 123 3
294 295 295 295 295 296 295 293 292 294 294 288 279 268 248 233 231 211 46 204 214 206 221 223 233 247 242 255 250 107 138 127 130 130 116 119 130 139 137 147 135 154 163 109 49
289 291 292 293 294 294 293 294 295 296 289 283 276 260 237 247 238 234 259 217 208 214 224 222 236 246 259 270 144 141 139 147 144 152 156 135 179 141 172 160 145 170 154 138 88
280 285 287 290 290 290 290 292 294 293 288 280 266 247 240 238 249 235 234 226 211 218 216 225 238 256 255 226 158 156 123 159 181 177 176 151 193 204 175 174 171 163 157 154 142
278 279 280 284 288 291 291 290 291 290 284 282 254 231 245 250 234 238 222 215 224 215 224 225 223 170 215 150 62 164 90 164 256 155 189 140 257 221 177 178 175 166 164 164 162
275 276 276 277 285 288 289 290 288 281 281 269 223 203 256 249 219 212 204 202 205 216 238 242 245 194 313 44 357 345 225 230 291 192 142 144 247 230 177 179 170 172 169 169 157
275 277 278 278 280 285 287 293 286 273 261 214 173 204 251 228 202 198 197 206 206 217 239 242 172 136 34 89 240 251 277 256 219 216 157 193 231 194 188 182 182 173 169 169 165
267 266 270 275 277 285 288 301 279 102 239 222 210 211 264 225 193 211 209 214 224 230 211 219 155 215 233 226 213 230 247 263 268 229 148 213 216 198 200 192 174 171 168 169 166
264 267 264 258 268 276 281 280 94 327 291 260 254 254 255 250 250 214 211 203 201 197 161 277 226 218 229 241 240 246 258 271 307 227 158 208 241 195 194 204 182 173 173 171 162
262 263 263 262 259 258 262 240 290 279 252 276 250 244 247 252 249 255 241 204 155 171 187 196 217 211 231 252 253 256 243 262 225 99 317 135 293 182 214 171 178 181 182 174 176
267 264 267 262 259 240 237 228 264 170 278 264 224 231 236 240 254 245 235 208 192 191 177 214 228 230 247 238 224 247 235 251 215 146 209 154 254 290 199 171 164 176 182 175 172
263 262 251 234 223 217 192 193 183 148 276 246 224 216 213 217 209 245 235 209 187 171 157 228 220 227 233 231 219 231 222 232 184 169 155 231 94 265 130 184 175 185 185 179 176
263 259 245 230 230 215 202 174 162 76 240 268 203 183 168 206 213 234 243 213 209 186 203 217 229 223 236 232 215 209 190 37 57 91 8 239 169 263 188 201 173 191 184 180 176
267 260 250 218 228 215 215 185 133 200 195 224 241 163 197 199 209 195 225 199 181 169 209 231 246 256 213 220 171 100 77 290 332 352 228 241 120 247 213 192 180 180 183 181 176
264 263 255 219 206 205 199 100 219 204 200 198 239 177 192 195 212 207 221 215 217 155 177 210 246 253 213 197 183 178 153 161 208 205 264 26 269 267 286 203 183 183 180 177 176
248 258 258 224 216 220 205 203 214 201 202 218 60 160 216 213 203 206 222 226 196 176 210 195 234 259 224 221 163 206 161 190 160 198 106 246 291 341 229 109 141 159 170 177 177
230 251 259 229 215 194 189 223 212 180 165 204 225 181 197 200 200 201 211 219 222 200 185 218 227 231 254 210 330 178 175 109 19 193 247 273 242 228 235 160 149 163 177 179 180
209 214 227 199 182 177 213 219 217 225 225 171 219 244 207 178 187 213 218 225 213 209 195 199 163 261 138 171 191 98 84 70 113 141 190 247 257 214 197 173 172 181 185 181 183
195 197 234 182 163 200 221 198 266 217 247 270 301 218 234 228 275 218 222 218 214 212 194 201 181 228 213 286 249 129 155 122 114 301 305 212 266 250 220 162 173 181 186 185 186
179 204 190 180 193 214 231 225 244 246 221 247 242 205 156 197 234 211 245 254 259 208 207 185 204 132 354 342 356 170 133 88 100 106 237 244 264 303 92 165 185 181 182 185 186
170 179 217 198 220 210 219 228 222 240 262 264 284 311 293 271 214 272 289 280 287 209 203 187 172 204 210 200 147 188 166 172 169 183 227 241 275 271 154 177 156 185 187 190 187
186 204 172 184 218 232 217 251 214 233 221 237 262 238 244 299 334 242 259 282 287 237 206 212 202 192 214 178 183 190 190 194 205 219 204 239 238 250 201 198 187 180 191 188 187
163 191 205 237 210 218 227 239 241 237 224 238 236 252 311 257 235 309 334 260 247 289 183 206 210 115 62 151 151 150 212 214 215 221 229 235 248 234 231 210 157 205 185 189 192
200 213 66 232 144 186 219 236 242 247 272 255 246 261 231 249 275 268 271 276 260 221 189 164 154 102 152 140 115 230 196 213 228 223 214 225 232 233 232 218 233 198 189 193 196
Height
1538 1535 1534 1531 1531 1528 1527 1528 1526 1524 1523 1523 1521 1521 1521 1522 1520 1519 1516 1521 1521 1519 1520 1521 1521 1522 1522 1518 1519 1521 1532 1537 1526 1529 1525 1524 1523 1524 1524 1525 1527 1528 1530 1531 1533
1535 1532 1529 1529 1528 1528 1527 1526 1524 1523 1521 1519 1517 1519 1520 1518 1518 1513 1513 1517 1520 1517 1517 1518 1518 1520 1520 1517 1518 1518 1531 1521 1515 1516 1520 1520 1520 1521 1524 1526 1530 1530 1531 1532 1531
1532 1530 1530 1529 1529 1527 1526 1524 1522 1522 1518 1518 1516 1516 1516 1515 1515 1504 1509 1512 1515 1513 1515 1516 1517 1519 1518 1517 1516 1515 1520 1515 1512 1512 1514 1517 1519 1519 1523 1529 1528 1530 1530 1529 1528
1531 1530 1528 1527 1526 1524 1523 1522 1522 1519 1516 1514 1513 1512 1513 1513 1515 1502 1502 1507 1510 1510 1512 1514 1514 1516 1516 1517 1512 1516 1508 1509 1510 1510 1514 1516 1517 1518 1519 1523 1526 1528 1527 1526 1525
1528 1526 1525 1524 1523 1521 1521 1519 1518 1515 1511 1511 1510 1511 1509 1509 1499 1500 1501 1504 1506 1507 1506 1510 1513 1513 1515 1513 1509 1508 1508 1510 1509 1510 1512 1515 1517 1517 1519 1521 1525 1525 1526 1525 1525
1525 1523 1522 1520 1518 1518 1517 1515 1512 1509 1508 1507 1506 1506 1506 1502 1498 1500 1501 1502 1502 1502 1503 1508 1509 1511 1510 1509 1506 1504 1506 1507 1508 1508 1510 1513 1516 1516 1521 1519 1522 1523 1524 1524 1524
1520 1519 1518 1517 1516 1515 1512 1509 1508 1506 1503 1502 1502 1501 1501 1491 1495 1495 1498 1500 1500 1499 1501 1504 1505 1508 1507 1507 1504 1503 1508 1507 1506 1506 1508 1512 1516 1514 1515 1517 1520 1522 1522 1523 1524
1515 1515 1515 1514 1515 1511 1508 1506 1504 1501 1500 1499 1498 1496 1491 1488 1494 1491 1495 1497 1499 1500 1502 1502 1505 1503 1503 1504 1503 1505 1509 1519 1506 1503 1506 1511 1524 1511 1512 1514 1517 1520 1521 1521 1524
1510 1511 1509 1510 1508 1504 1503 1502 1499 1497 1496 1493 1496 1494 1488 1485 1486 1489 1491 1494 1496 1497 1500 1500 1502 1501 1502 1506 1515 1511 1522 1517 1509 1501 1505 1509 1517 1505 1508 1511 1514 1516 1518 1520 1522
1504 1504 1505 1505 1504 1499 1496 1496 1494 1493 1491 1492 1494 1498 1483 1479 1481 1486 1489 1493 1494 1495 1497 1499 1497 1500 1505 1514 1530 1523 1521 1512 1512 1502 1503 1509 1509 1508 1507 1507 1510 1512 1516 1518 1520
1498 1500 1500 1501 1500 1497 1495 1493 1492 1491 1489 1484 1482 1479 1474 1477 1481 1483 1485 1489 1493 1494 1496 1496 1501 1509 1506 1504 1505 1507 1510 1511 1503 1498 1502 1506 1505 1506 1505 1508 1509 1511 1513 1517 1519
1496 1496 1496 1496 1496 1494 1491 1489 1489 1491 1484 1478 1478 1479 1472 1478 1478 1478 1483 1485 1488 1493 1491 1497 1503 1497 1497 1499 1502 1504 1509 1507 1497 1492 1499 1503 1504 1502 1502 1500 1502 1507 1511 1514 1517
1490 1491 1490 1489 1488 1487 1487 1486 1484 1484 1482 1470 1470 1471 1468 1473 1473 1473 1477 1479 1482 1489 1489 1498 1495 1492 1496 1499 1503 1502 1505 1503 1503 1496 1497 1499 1508 1501 1499 1501 1504 1507 1509 1512 1515
1482 1483 1483 1484 1486 1481 1481 1484 1484 1482 1487 1471 1460 1460 1463 1466 1467 1469 1469 1474 1476 1482 1486 1490 1485 1490 1494 1497 1496 1507 1493 1492 1496 1506 1523 1498 1532 1500 1496 1500 1502 1505 1507 1509 1512
1475 1475 1477 1479 1477 1475 1478 1480 1482 1484 1511 1453 1445 1446 1452 1458 1463 1460 1465 1467 1470 1475 1481 1480 1484 1489 1491 1489 1486 1495 1487 1489 1490 1502 1506 1502 1526 1503 1496 1503 1502 1502 1504 1507 1509
1469 1469 1470 1472 1470 1473 1474 1476 1480 1495 1497 1450 1435 1436 1444 1447 1452 1457 1457 1459 1462 1468 1471 1475 1475 1477 1479 1476 1478 1477 1485 1492 1499 1510 1530 1507 1512 1510 1503 1490 1496 1499 1501 1504 1508
1464 1463 1463 1466 1466 1469 1471 1475 1488 1487 1447 1443 1437 1433 1435 1441 1446 1450 1454 1455 1462 1481 1482 1475 1473 1469 1472 1478 1473 1480 1498 1526 1537 1541 1537 1497 1509 1494 1482 1480 1482 1490 1496 1501 1506
1458 1458 1456 1459 1463 1465 1468 1473 1478 1439 1438 1426 1428 1429 1437 1434 1441 1444 1450 1455 1453 1462 1476 1486 1491 1469 1465 1471 1477 1482 1494 1523 1534 1541 1514 1497 1509 1493 1471 1470 1475 1482 1489 1498 1504
1452 1451 1448 1451 1458 1462 1465 1463 1430 1429 1423 1425 1430 1435 1437 1432 1436 1441 1443 1447 1449 1455 1470 1483 1477 1460 1460 1461 1463 1479 1492 1482 1502 1504 1514 1507 1489 1479 1473 1473 1479 1485 1491 1495 1500
1443 1445 1441 1447 1452 1456 1460 1423 1420 1414 1418 1424 1432 1429 1436 1432 1438 1438 1438 1434 1441 1443 1447 1461 1477 1460 1456 1459 1460 1461 1466 1493 1506 1522 1525 1510 1495 1501 1480 1479 1482 1486 1489 1493 1498
1436 1440 1435 1436 1445 1451 1437 1410 1416 1416 1417 1422 1425 1426 1424 1430 1430 1432 1431 1428 1428 1433 1440 1447 1463 1467 1458 1462 1469 1469 1480 1486 1494 1501 1523 1532 1509 1476 1471 1472 1476 1480 1485 1487 1494
1428 1434 1427 1426 1439 1435 1421 1408 1413 1415 1417 1420 1418 1420 1420 1422 1427 1432 1427 1418 1415 1422 1437 1439 1455 1468 1462 1457 1457 1460 1469 1479 1504 1502 1503 1508 1506 1462 1461 1464 1467 1474 1480 1486 1490
1417 1424 1424 1422 1423 1421 1411 1413 1417 1415 1417 1419 1419 1417 1415 1421 1429 1419 1416 1410 1411 1412 1420 1431 1453 1480 1476 1466 1457 1458 1466 1470 1477 1500 1508 1512 1502 1466 1462 1465 1470 1474 1478 1484 1488
1411 1415 1415 1418 1413 1412 1413 1411 1416 1415 1418 1420 1418 1416 1417 1417 1419 1418 1413 1407 1406 1406 1407 1412 1435 1436 1453 1453 1456 1463 1459 1464 1478 1495 1490 1491 1482 1474 1463 1465 1467 1472 1476 1483 1483
1399 1397 1397 1407 1410 1407 1411 1406 1412 1414 1409 1415 1414 1414 1421 1421 1418 1414 1410 1408 1401 1398 1398 1415 1424 1426 1425 1432 1441 1447 1451 1457 1466 1466 1479 1474 1483 1469 1455 1455 1459 1465 1475 1482 1486
1391 1392 1395 1398 1399 1404 1408 1405 1407 1406 1410 1407 1416 1410 1418 1420 1414 1414 1409 1406 1405 1399 1396 1409 1424 1422 1440 1430 1440 1449 1450 1453 1452 1457 1465 1469 1477 1461 1452 1455 1460 1463 1467 1474 1478
1387 1392 1392 1397 1396 1400 1399 1396 1402 1408 1405 1407 1408 1412 1415 1400 1413 1409 1408 1404 1402 1400 1403 1402 1411 1426 1449 1439 1450 1461 1445 1452 1454 1454 1457 1469 1461 1456 1457 1454 1454 1453 1458 1462 1468